Location: Civry
(47.2902°N, 4.6156°E)
Time: 22:00:23
(UTC+00:00)

Mayak - Pass Details

Date: 09 April 2020
Orbit: 581 x 600 km, 97.5° (Epoch: 03 June)

Event Time Altitude Azimuth Distance (km) Brightness Sun altitude
Rises 23:37:09 0° 353° (N) 2,823 ? -34.7°
Reaches altitude 10° 23:40:48 10° 320° (NW) 1,913 ? -34.7°
Enters shadow 23:41:12 11° 314° (NW) 1,867 ? -34.7°
